Regional Weather Roundup
Issued by NWS Cleveland, OH

Home | Current Version | Previous Version | Graphics & Text | Print | Product List | Glossary On
Versions: 1 2 3 4 5 6 7 8 9 10 11 12 13 14 15 16 17 18 19 20 21 22 23 24 25 26 27 28 29 30 31 32 33 34 35 36 37 38 39 40 41 42 43 44 45 46 47 48 49 50
000
ASUS41 KCLE 241412
RWRCLE
OHIO REGIONAL WEATHER ROUNDUP
NATIONAL WEATHER SERVICE WILMINGTON, OH
1000 AM EDT SAT JUN 24 2017

NOTE: "FAIR" INDICATES FEW OR NO CLOUDS BELOW 12,000 FEET WITH NO
SIGNIFICANT WEATHER AND/OR OBSTRUCTIONS TO VISIBILITY.

OHZ001>008-015>018-024>027-034-035-043-044-241500-
   NORTHWEST OHIO

CITY           SKY/WX    TMP DP  RH WIND       PRES   REMARKS
DEFIANCE       FAIR      68  57  68 NW7       29.91R
FINDLAY        FAIR      70  58  65 W13       29.91R
TOLEDO EXPRESS FAIR      70  57  63 W9        29.88R
TOLEDO EXEC    FAIR      72  58  61 W9        29.88R
LIMA           FAIR      68  59  73 W9        29.93R
$$

OHZ009>014-019>023-028>033-038-089-241500-
   NORTHEAST OHIO

CITY           SKY/WX    TMP DP  RH WIND       PRES   REMARKS
CLE-HOPKINS    FAIR      73  59  61 W9        29.88R
CLE-LAKEFRONT  FAIR      70  60  70 SW13      29.85R
CUY CO. ARPT   MOSUNNY   72  61  68 W13       29.86R
LORAIN-ELYRIA  PTSUNNY   68  55  63 W8        29.88R
ASHTABULA      FAIR      71  62  73 W14       29.85R
AKRON-CANTON   PTSUNNY   70  55  59 W9        29.88R
WOOSTER        FAIR      69  59  70 W12       29.90R
MANSFIELD      FAIR      68  59  73 W10       29.92R
YOUNGSTOWN     PTSUNNY   71  58  63 SW12      29.87R
$$

OHZ042-051>053-060>062-070>072-077>081-241500-
  SOUTHWEST OHIO

CITY           SKY/WX    TMP DP  RH WIND       PRES   REMARKS
CINC-COVINGTON FAIR      69  62  78 W9        29.99R
CINC-LUNKEN    FAIR      71  63  75 W6        29.99R
HAMILTON       FAIR      71  63  75 W7        29.99R
DAYTON         FAIR      69  58  67 NW10      29.97R
WRIGHT-PAT AFB MOSUNNY   70  61  74 NW8       29.95R
DAYTON GENERAL FAIR      69  59  70 NW8       29.97R
WILMINGTON     FAIR      69  62  78 W9        29.97R
$$

OHZ036-037-039>041-045>050-054>059-063>069-073>076-082>088-241500-
  CENTRAL AND SOUTHEAST OHIO

CITY           SKY/WX    TMP DP  RH WIND       PRES   REMARKS
COLUMBUS       PTSUNNY   70  63  78 W8        29.93R
OSU AIRPORT    FAIR      70  61  73 NW12      29.93R
BOLTON FIELD   SUNNY     70  61  73 S7        29.95R
RICKENBACK AFB FAIR      69  62  79 W10       29.94R
NEWARK         FAIR      71  62  73 W9        29.92R
MARION         FAIR      70  59  68 NW8       29.93R
LANCASTER      PTSUNNY   69  63  81 W8        29.94R
ZANESVILLE     FAIR      71  62  73 SW8       29.92R
NEW PHILLY     FAIR      71  60  68 SW7       29.90R
$$



USA.gov is the U.S. government's official web portal to all federal, state and local government web resources and services.